#timestamp,LO_Frequency,Hit,StdDev 
1503201615.2,286046998.2,N,1.1
1503201635.9,286047000.9,N,1.2
1503201655.7,286047001.0,N,1.2
1503201675.6,286047000.9,N,1.2
1503201695.4,286047000.8,N,1.2
1503201715.3,286047000.9,N,1.2
1503201735.1,286047001.2,N,1.2
1503201736.0,286047001.2,N,1.2
1503201755.8,286046998.5,N,1.2
1503201775.7,286046998.9,N,1.2
1503201795.5,286046998.6,N,1.2
1503201815.4,286047000.8,N,1.2
1503201835.2,286047001.0,N,1.2
1503201855.0,286046998.4,N,1.2
1503201855.9,286046998.4,N,1.2
1503201875.8,286047000.7,N,1.2
1503201895.6,286046998.3,N,1.2
1503201915.5,286047000.8,N,1.2
1503201935.3,286047000.8,N,1.2
1503201955.1,286047000.3,N,1.2
1503201975.9,286047000.5,N,1.2
1503201995.7,286047000.0,N,1.2
1503202015.5,286047000.2,N,1.2
1503202035.4,286046999.7,N,1.1
1503202055.2,286047002.3,N,1.2
1503202075.1,286046999.9,N,1.2
1503202076.0,286046999.9,N,1.1
1503202095.8,286047000.3,N,1.1
1503202115.6,286047000.6,N,1.1
1503202135.5,286046998.2,N,1.1
1503202155.3,286047000.7,N,1.0
1503202175.2,286047000.8,N,1.0
1503202195.9,286047000.8,N,1.0
1503202215.7,286046998.5,N,1.1
1503202235.6,286046998.5,N,1.1
1503202255.4,286047000.7,N,1.1
1503202275.3,286047001.0,N,1.1
1503202295.1,286046998.1,N,1.1
1503202296.0,286046998.1,N,1.1
1503202315.8,286047000.7,N,1.1
1503202335.7,286047000.4,N,1.1
1503202355.5,286047000.1,N,1.1
1503202375.3,286047000.7,N,1.1
1503202395.2,286046998.7,N,1.1
1503202415.0,286046999.1,N,1.0
1503202415.9,286046999.1,N,1.0
1503202435.8,286046998.6,N,1.0
1503202455.6,286046998.1,N,1.1
1503202475.5,286047000.6,N,1.1
1503202495.3,286047000.9,N,1.1
1503202515.1,286047000.7,N,1.1
1503202535.9,286047000.8,N,1.1
1503202555.7,286047000.4,N,1.1
1503202575.5,286047002.6,N,1.2
1503202595.4,286047002.4,N,1.2
1503202615.2,286047002.7,N,1.3
1503202635.1,286047000.5,N,1.3
1503202636.0,286047000.5,N,1.3
1503202655.8,286047000.6,N,1.3
1503202675.6,286047000.4,N,1.3
1503202695.5,286047000.4,N,1.3
1503202715.3,286047000.9,N,1.3
1503202735.2,286047000.4,N,1.2
1503202755.0,286047000.5,N,1.2
1503202755.9,286047000.5,N,1.2
1503202775.8,286047000.5,N,1.2
1503202795.6,286046999.7,N,1.2
1503202815.4,286047000.0,N,1.1
1503202835.3,286047000.2,N,1.0
1503202855.1,286047002.6,N,1.1
1503202875.8,286047002.7,N,1.2
1503202895.7,286047002.8,N,1.2
1503202915.5,286046999.9,N,1.2
1503202935.4,286047000.5,N,1.2
1503202955.2,286047000.3,N,1.1
1503202975.0,286047002.5,N,1.2
1503202975.9,286047002.5,N,1.1
1503202995.8,286047002.3,N,1.0
1503203015.6,286047002.2,N,1.0
1503203035.5,286047002.5,N,1.1
1503203055.3,286047002.2,N,1.1
1503203075.1,286047004.3,Y,0.0
1503203095.9,286047000.1,P,0.6
1503203115.7,286047000.1,N,0.5
1503203135.6,286047000.4,N,0.5
1503203155.4,286047000.2,N,0.4
1503203175.2,286047002.2,Y,0.0
1503203195.1,286047002.3,P,0.9
1503203196.0,286047002.3,N,0.9
1503203215.8,286047002.7,N,0.9
1503203235.7,286046999.9,N,1.1
1503203255.5,286047000.6,N,1.1
1503203275.3,286046998.2,N,1.5
1503203295.2,286046998.2,N,1.7
1503203315.0,286046998.7,N,1.7
1503203315.9,286046998.7,N,1.7
1503203335.8,286046998.9,N,1.6
1503203355.6,286046998.8,N,1.6
1503203375.4,286046999.5,N,1.5
1503203395.3,286046999.1,N,1.5
1503203415.1,286046999.5,N,1.5
1503203435.9,286046998.9,N,1.4
1503203455.7,286046996.5,N,1.6
1503203475.5,286046997.5,N,1.6
1503203495.4,286046995.4,N,1.8
1503203515.2,286046995.4,N,2.0
1503203535.1,286046995.5,N,2.1
1503203536.0,286046995.5,N,2.1
1503203555.8,286046996.0,N,2.2
1503203575.6,286046996.1,N,2.2
1503203595.5,286046996.0,N,2.2
1503203615.3,286046995.9,N,2.2
1503203635.2,286046995.9,N,2.2
1503203655.9,286046996.3,N,2.2
1503203675.7,286046996.4,N,2.2
1503203695.6,286046996.4,N,2.2
1503203715.4,286046993.5,Y,0.0
1503203735.3,286046995.8,P,1.1
1503203755.1,286046995.3,P,1.2
1503203756.0,286046995.3,P,1.1
1503203775.8,286046996.2,Y,0.0
1503203795.7,286047000.7,P,2.3
1503203815.5,286046998.5,N,1.9
1503203835.4,286046999.9,N,1.7
1503203855.2,286047000.6,N,1.7
1503203875.0,286047000.6,N,1.7
1503203875.9,286047000.6,N,1.6
1503203895.8,286047002.8,N,1.8
1503203915.6,286047002.4,N,1.9
1503203935.4,286047002.3,N,1.9
1503203955.3,286047001.1,N,1.8
1503203975.1,286046999.0,N,1.8
1503203995.9,286046997.2,N,1.9
1503204015.7,286046997.2,N,2.0
1503204035.5,286046996.5,N,2.1
1503204055.4,286046999.6,N,2.0
1503204075.2,286046998.8,N,2.0
1503204095.1,286046996.9,N,2.0
1503204096.0,286046996.9,N,2.1
1503204115.8,286046996.7,N,2.1
1503204135.6,286046997.2,N,2.1
1503204155.5,286046997.2,N,2.1
1503204175.3,286046997.1,N,2.1
1503204195.1,286046997.4,N,2.0
1503204215.9,286046995.1,N,2.1
1503204235.7,286046997.4,N,2.1
1503204255.6,286046997.3,N,2.1
1503204275.4,286046996.8,N,2.1
1503204295.2,286046997.3,N,2.1
1503204315.1,286046997.3,N,2.0
1503204316.0,286046997.3,N,2.0
1503204335.8,286046997.5,N,2.0
1503204355.7,286046994.9,N,2.1
1503204375.5,286046997.6,N,2.0
1503204395.3,286046997.0,N,2.0
1503204415.2,286046997.1,N,2.0
1503204435.0,286046997.7,N,1.9
1503204435.9,286046997.7,N,1.7
1503204455.8,286046996.6,N,1.4
1503204475.6,286046997.1,N,1.1
1503204495.4,286046997.4,N,0.9
1503204515.3,286046997.4,N,0.8
1503204535.1,286046997.4,Y,0.0
1503204555.9,286046999.4,P,1.1
1503204575.7,286046997.0,N,1.1
1503204595.5,286046997.5,N,1.0
1503204615.4,286046996.8,Y,0.0
1503204635.2,286047001.0,P,1.6
1503204655.1,286047000.3,N,1.4
1503204656.0,286047000.3,N,1.2
1503204675.8,286047000.9,N,1.2
1503204695.6,286047001.1,N,1.1
1503204715.5,286047000.8,N,1.1
1503204735.3,286046998.2,N,1.2
1503204755.2,286047001.1,N,1.2
1503204775.9,286047000.5,N,1.1
1503204795.7,286047000.6,N,1.1
1503204815.6,286047000.6,N,1.1
1503204835.4,286047000.4,N,1.0
1503204855.3,286046998.5,N,1.1
1503204875.1,286047000.8,N,1.1
1503204876.0,286047000.8,N,1.0
1503204895.8,286046998.3,N,1.1
1503204915.7,286047000.7,N,1.1
1503204935.5,286046998.1,N,1.1
1503204955.3,286046998.8,N,1.1
1503204975.2,286047000.7,N,1.1
1503204995.0,286046998.1,N,1.2
1503204995.9,286046998.1,N,1.2
1503205015.8,286047001.1,N,1.2
1503205035.6,286046998.2,N,1.2
1503205055.4,286047001.1,N,1.2
1503205075.3,286047000.6,N,1.2
1503205095.1,286047000.9,N,1.2
1503205115.9,286047000.0,N,1.2
1503205135.7,286047002.8,N,1.3
1503205155.5,286047002.0,N,1.2
1503205175.4,286047000.1,N,1.2
1503205195.2,286047001.5,N,1.3
